If you wish to contribute or participate in the discussions about articles you are invited to join SKYbrary as a registered user

 Actions

Kitakyushu Airport

From SKYbrary Wiki

RJFR
Airport
ICAO: RJFR – IATA: KKJ
Summary
Name Kitakyushu Airport
Region Asia and Pacific
Territory Japan JP.gif
Location Kokuraminamiku, Fukuoka Prefecture
Serving Kitakyushu
Elevation 6.401 m <br />21 ft6.401 m <br />
Coordinates 33° 50' 17.20" N, 131° 1' 55.58" E
Runways
Designator Length Width Surface ROPS
18/36 2500 m8,202.1 ft <br /> 79 m259.186 ft <br /> ASP yes/yes


METAR
Observation RJFR 230900Z 32007KT 9999 FEW030 BKN/// 26/17 Q1008
Station Kitakyushu Airport
Date/Time 23 June 2021 09:00:00
Wind direction 320°
Wind speed 07 kts
Lowest cloud amount few clouds
Temperature 26°C
Dew point 17°C
Humidity 57%
QNH 1008 hPa
Weather condition n/a

Airport in Kokuraminami-ku, Kitakyushu, Fukuoka Japan. It is built on an artificial island in the western Seto Inland Sea.

Climatology

Humid Sub-tropical climate (Köppen climate classification Cfa)

Maps

Terrain

Loading map...

Airport Layout

Loading map...


Accidents & Serious Incidents at or in vicinity of RJFR

None on SKYbrary